Sturgeon Bay, WI

3:51 PM CST on February 25, 2017 (GMT -0600)
Door County Cherryland

Weather History for KSUE - December, 2012

Change the Weather History Date:

Tuesday, December 25, 2012

  Actual Average Record
Temperature  
Mean Temperature 22 °F -  
Max Temperature 26 °F 25 °F 50 °F (1936)
Min Temperature 17 °F 11 °F -20 °F (1933)
Degree Days  
Heating Degree Days 44    
Moisture  
Dew Point 16 °F    
Average Humidity 75    
Maximum Humidity 86    
Minimum Humidity 68    
Precipitation  
Precipitation 0.00 in - - ()
Sea Level Pressure  
Sea Level Pressure 30.29 in    
Wind  
Wind Speed 10 mph (North)    
Max Wind Speed 14 mph    
Max Gust Speed 18 mph    
Visibility 10 miles    
Events      
Averages and records for this station are not official NWS values.
T = Trace of Precipitation, MM = Missing Value Source: NWS Daily Summary

Daily Weather History Graph

Daily Weather History Graph

Search for Another Location

Airport or City:

Trip Planner

Search our weather history database for the weather conditions in past years. The results will help you decide how hot, cold, wet, or windy it might be!

Date:

Astronomy

Dec. 25, 2012 Rise Set
Actual Time 7:26 AM CST 4:14 PM CST
Civil Twilight 6:52 AM CST 4:47 PM CST
Nautical Twilight 6:15 AM CST 5:24 PM CST
Astronomical Twilight 5:39 AM CST 6:00 PM CST
Moon 2:23 PM CST 4:56 AM CST
Length of Visible Light 9h 55m
Length of Day
8h 47m
Waxing Gibbous, 94% of the Moon is Illuminated
Dec 25
Waxing Gibbous
Dec 28
Full
Jan 4
Last Quarter
Jan 11
New
Jan 18
First Quarter

Hourly Weather History & Observations

Time (CST) Temp. Windchill Dew Point Humidity Pressure Visibility Wind Dir Wind Speed Gust Speed Precip Events Conditions
12:15 AM 21.2 °F 8.9 °F 14.0 °F 74% 30.12 in 10.0 mi North 12.7 mph - N/A   Overcast
12:35 AM 21.2 °F 8.9 °F 15.8 °F 80% 30.13 in 10.0 mi North 12.7 mph - N/A   Overcast
12:55 AM 21.2 °F 8.9 °F 14.0 °F 74% 30.13 in 10.0 mi NNW 12.7 mph - N/A   Overcast
1:15 AM 21.2 °F 8.3 °F 14.0 °F 74% 30.14 in 10.0 mi NNW 13.8 mph - N/A   Overcast
1:35 AM 21.2 °F 9.5 °F 12.2 °F 68% 30.14 in 10.0 mi NNW 11.5 mph - N/A   Overcast
1:55 AM 21.2 °F 8.3 °F 14.0 °F 74% 30.16 in 10.0 mi NNW 13.8 mph - N/A   Overcast
2:15 AM 21.2 °F 9.5 °F 12.2 °F 68% 30.17 in 10.0 mi NNW 11.5 mph - N/A   Overcast
2:35 AM 21.2 °F 10.1 °F 12.2 °F 68% 30.18 in 10.0 mi NNW 10.4 mph - N/A   Overcast
2:55 AM 21.2 °F 10.9 °F 12.2 °F 68% 30.19 in 10.0 mi NW 9.2 mph - N/A   Overcast
3:15 AM 21.2 °F 9.5 °F 12.2 °F 68% 30.19 in 10.0 mi NNW 11.5 mph - N/A   Overcast
3:35 AM 19.4 °F 9.5 °F 12.2 °F 74% 30.20 in 10.0 mi NW 8.1 mph - N/A   Overcast
3:55 AM 21.2 °F 11.7 °F 12.2 °F 68% 30.21 in 10.0 mi NNW 8.1 mph - N/A   Overcast
4:15 AM 21.2 °F 10.1 °F 12.2 °F 68% 30.21 in 10.0 mi NNW 10.4 mph - N/A   Overcast
4:35 AM 21.2 °F 10.1 °F 12.2 °F 68% 30.21 in 10.0 mi NW 10.4 mph - N/A   Overcast
4:55 AM 19.4 °F 11.5 °F 12.2 °F 74% 30.22 in 10.0 mi WNW 5.8 mph - N/A   Overcast
5:15 AM 19.4 °F 9.5 °F 12.2 °F 74% 30.23 in 10.0 mi WNW 8.1 mph - N/A   Overcast
5:35 AM 19.4 °F 8.6 °F 12.2 °F 74% 30.24 in 10.0 mi NNW 9.2 mph - N/A   Overcast
5:55 AM 19.4 °F 10.4 °F 12.2 °F 74% 30.24 in 10.0 mi NNW 6.9 mph - N/A   Overcast
6:15 AM 17.6 °F 8.2 °F 12.2 °F 79% 30.25 in 10.0 mi NNW 6.9 mph - N/A   Mostly Cloudy
6:35 AM 19.4 °F 8.6 °F 14.0 °F 80% 30.26 in 10.0 mi NNW 9.2 mph - N/A   Overcast
6:55 AM 19.4 °F 8.6 °F 12.2 °F 74% 30.26 in 10.0 mi NNW 9.2 mph - N/A   Overcast
7:15 AM 19.4 °F 7.9 °F 15.8 °F 86% 30.27 in 10.0 mi North 10.4 mph - N/A   Overcast
7:35 AM 19.4 °F 10.4 °F 15.8 °F 86% 30.27 in 10.0 mi NNE 6.9 mph - N/A   Overcast
7:55 AM 21.2 °F 10.9 °F 15.8 °F 80% 30.29 in 10.0 mi North 9.2 mph - N/A   Overcast
8:15 AM 21.2 °F 9.5 °F 15.8 °F 80% 30.29 in 10.0 mi NNE 11.5 mph - N/A   Overcast
8:35 AM 21.2 °F 9.5 °F 14.0 °F 74% 30.29 in 10.0 mi North 11.5 mph - N/A   Overcast
8:55 AM 21.2 °F 10.1 °F 15.8 °F 80% 30.30 in 10.0 mi North 10.4 mph - N/A   Overcast
9:15 AM 21.2 °F 11.7 °F 15.8 °F 80% 30.31 in 10.0 mi North 8.1 mph - N/A   Overcast
9:35 AM 23.0 °F 11.7 °F 17.6 °F 80% 30.31 in 10.0 mi North 11.5 mph 17.3 mph N/A   Overcast
9:55 AM 23.0 °F 11.1 °F 19.4 °F 86% 30.32 in 10.0 mi North 12.7 mph 18.4 mph N/A   Overcast
10:15 AM 23.0 °F 10.6 °F 17.6 °F 80% 30.32 in 10.0 mi NNE 13.8 mph - N/A   Overcast
10:35 AM 24.8 °F 14.0 °F 19.4 °F 80% 30.31 in 10.0 mi NNE 11.5 mph - N/A   Overcast
10:55 AM 24.8 °F 14.6 °F 17.6 °F 74% 30.31 in 10.0 mi North 10.4 mph - N/A   Overcast
11:15 AM 24.8 °F 14.6 °F 19.4 °F 80% 30.30 in 10.0 mi NNE 10.4 mph - N/A   Overcast
11:35 AM 24.8 °F 13.4 °F 19.4 °F 80% 30.29 in 10.0 mi North 12.7 mph - N/A   Overcast
11:55 AM 26.6 °F 15.7 °F 19.4 °F 74% 30.29 in 10.0 mi North 12.7 mph 16.1 mph N/A   Overcast
12:15 PM 26.6 °F 15.7 °F 19.4 °F 74% 30.29 in 10.0 mi North 12.7 mph - N/A   Overcast
12:35 PM 26.6 °F 16.8 °F 17.6 °F 69% 30.30 in 10.0 mi NNE 10.4 mph - N/A   Overcast
12:55 PM 26.6 °F 17.5 °F 19.4 °F 74% 30.30 in 10.0 mi NNE 9.2 mph - N/A   Overcast
1:15 PM 26.6 °F 19.1 °F 17.6 °F 69% 30.31 in 10.0 mi NNE 6.9 mph - N/A   Overcast
1:35 PM 26.6 °F 17.5 °F 17.6 °F 69% 30.32 in 10.0 mi NNE 9.2 mph - N/A   Overcast
2:15 PM 26.6 °F 19.1 °F 17.6 °F 69% 30.33 in 10.0 mi NNE 6.9 mph - N/A   Overcast
2:35 PM 26.6 °F 21.2 °F 17.6 °F 69% 30.33 in 10.0 mi NE 4.6 mph - N/A   Overcast
2:55 PM 26.6 °F 19.1 °F 17.6 °F 69% 30.33 in 10.0 mi NNE 6.9 mph - N/A   Overcast
3:15 PM 26.6 °F 16.2 °F 17.6 °F 69% 30.32 in 10.0 mi NNE 11.5 mph - N/A   Overcast
3:35 PM 26.6 °F 16.8 °F 17.6 °F 69% 30.32 in 10.0 mi NNE 10.4 mph - N/A   Overcast
3:55 PM 24.8 °F 15.3 °F 17.6 °F 74% 30.32 in 10.0 mi NE 9.2 mph - N/A   Scattered Clouds
4:15 PM 24.8 °F 15.3 °F 15.8 °F 69% 30.32 in 10.0 mi NE 9.2 mph - N/A   Clear
4:35 PM 24.8 °F 16.1 °F 15.8 °F 69% 30.33 in 10.0 mi NE 8.1 mph - N/A   Scattered Clouds
4:55 PM 24.8 °F 16.9 °F 17.6 °F 74% 30.34 in 10.0 mi NE 6.9 mph - N/A   Mostly Cloudy
5:15 PM 24.8 °F 16.9 °F 17.6 °F 74% 30.35 in 10.0 mi NE 6.9 mph - N/A   Overcast
5:35 PM 24.8 °F 16.9 °F 15.8 °F 69% 30.36 in 10.0 mi NE 6.9 mph - N/A   Overcast
5:55 PM 24.8 °F 15.3 °F 17.6 °F 74% 30.36 in 10.0 mi NNE 9.2 mph - N/A   Overcast
6:15 PM 24.8 °F 14.6 °F 15.8 °F 69% 30.36 in 10.0 mi NNE 10.4 mph - N/A   Overcast
6:35 PM 24.8 °F 16.1 °F 15.8 °F 69% 30.37 in 10.0 mi NNE 8.1 mph - N/A   Mostly Cloudy
6:55 PM 23.0 °F 14.7 °F 17.6 °F 80% 30.37 in 10.0 mi NE 6.9 mph - N/A   Clear
7:15 PM 23.0 °F 13.9 °F 15.8 °F 74% 30.37 in 10.0 mi NNE 8.1 mph - N/A   Clear
7:35 PM 23.0 °F 13.9 °F 15.8 °F 74% 30.37 in 10.0 mi NNE 8.1 mph - N/A   Scattered Clouds
7:55 PM 23.0 °F 15.8 °F 15.8 °F 74% 30.37 in 10.0 mi NNE 5.8 mph - N/A   Partly Cloudy
8:15 PM 21.2 °F 12.6 °F 15.8 °F 80% 30.36 in 10.0 mi NNE 6.9 mph - N/A   Partly Cloudy
8:35 PM 21.2 °F 13.6 °F 15.8 °F 80% 30.36 in 10.0 mi NNE 5.8 mph - N/A   Clear
8:55 PM 23.0 °F 13.9 °F 15.8 °F 74% 30.36 in 10.0 mi NNE 8.1 mph - N/A   Clear
9:15 PM 21.2 °F 13.6 °F 15.8 °F 80% 30.36 in 10.0 mi NNE 5.8 mph - N/A   Clear
9:35 PM 21.2 °F 13.6 °F 15.8 °F 80% 30.36 in 10.0 mi NNE 5.8 mph - N/A   Clear
9:55 PM 21.2 °F 12.6 °F 15.8 °F 80% 30.36 in 10.0 mi NE 6.9 mph - N/A   Partly Cloudy
10:15 PM 21.2 °F 12.6 °F 15.8 °F 80% 30.35 in 10.0 mi NE 6.9 mph - N/A   Mostly Cloudy
10:35 PM 21.2 °F 10.1 °F 15.8 °F 80% 30.35 in 10.0 mi NNE 10.4 mph - N/A   Scattered Clouds
10:55 PM 21.2 °F 10.1 °F 15.8 °F 80% 30.34 in 10.0 mi NE 10.4 mph - N/A   Clear
11:15 PM 21.2 °F 9.5 °F 15.8 °F 80% 30.33 in 10.0 mi NNE 11.5 mph - N/A   Clear
11:35 PM 23.0 °F 11.7 °F 17.6 °F 80% 30.32 in 10.0 mi NNE 11.5 mph - N/A   Clear
11:55 PM 21.2 °F 9.5 °F 15.8 °F 80% 30.32 in 10.0 mi NNE 11.5 mph - N/A   Clear